Weather History for Hebron, NE

Change the Weather History Date:

Wednesday, May 29, 2013

  Actual Average Record
Temperature  
Mean Temperature 71 °F -  
Max Temperature 81 °F 79 °F 94 °F (1956)
Min Temperature 61 °F 56 °F 36 °F (1992)
Cooling Degree Days 6    
Growing Degree Days 21 (Base 50)    
Moisture  
Dew Point 65 °F    
Average Humidity 79    
Maximum Humidity 89    
Minimum Humidity 66    
Precipitation  
Precipitation 0.87 in - - ()
Sea Level Pressure  
Sea Level Pressure 29.61 in    
Wind  
Wind Speed 14 mph (SSE)    
Max Wind Speed 30 mph    
Max Gust Speed 61 mph    
Visibility 9 miles    
Events Rain , Thunderstorm    
Averages and records for this station are not official NWS values.
T = Trace of Precipitation, MM = Missing Value Source: NWS Daily Summary

Daily Weather History Graph

Daily Weather History Graph

Search for Another Location

Airport:

Trip Planner

Search our weather history database for the weather conditions in past years. The results will help you decide how hot, cold, wet, or windy it might be!

Date:

Astronomy

May. 29, 2013 Rise Set
Actual Time 6:04 AM CDT 8:51 PM CDT
Civil Twilight 5:32 AM CDT 9:23 PM CDT
Nautical Twilight 4:52 AM CDT 10:04 PM CDT
Astronomical Twilight 4:06 AM CDT 10:50 PM CDT
Moon 12:15 AM CDT (5/29) 11:05 AM CDT (5/29)
Length of Visible Light 15h 51m
Length of Day
14h 47m
Waning Gibbous, 73% of the Moon is Illuminated
May 29
Waning Gibbous
May 31
Last Quarter
Jun 8
New
Jun 16
First Quarter
Jun 23
Full

Hourly Weather History & Observations

Time (CDT) Temp. Heat Index Dew Point Humidity Pressure Visibility Wind Dir Wind Speed Gust Speed Precip Events Conditions
12:15 AM 69.8 °F - 65.7 °F 87% 29.65 in 10.0 mi SE 6.9 mph - N/A   Clear
12:35 AM 71.1 °F - 66.2 °F 85% 29.65 in 10.0 mi SSE 11.5 mph - N/A   Clear
12:55 AM 72.5 °F - 66.0 °F 80% 29.66 in 10.0 mi SE 13.8 mph - N/A   Clear
1:15 AM 72.5 °F - 66.0 °F 80% 29.65 in 10.0 mi SE 16.1 mph 20.7 mph N/A   Clear
1:35 AM 72.1 °F - 66.2 °F 82% 29.65 in 10.0 mi SSE 16.1 mph - N/A   Clear
1:55 AM 72.1 °F - 66.2 °F 82% 29.65 in 10.0 mi SSE 15.0 mph - N/A   Clear
2:15 AM 72.5 °F - 66.2 °F 81% 29.64 in 10.0 mi SSE 15.0 mph 20.7 mph N/A   Scattered Clouds
2:35 AM 72.5 °F - 66.2 °F 81% 29.64 in 10.0 mi SSE 16.1 mph 21.9 mph N/A   Scattered Clouds
2:55 AM 72.7 °F - 66.2 °F 80% 29.65 in 10.0 mi SSE 15.0 mph 20.7 mph N/A   Scattered Clouds
3:15 AM 72.5 °F - 66.2 °F 81% 29.66 in 10.0 mi South 13.8 mph 17.3 mph N/A   Mostly Cloudy
3:35 AM 72.0 °F - 66.2 °F 82% 29.67 in 10.0 mi SSE 11.5 mph 17.3 mph N/A   Scattered Clouds
3:55 AM 71.6 °F - 65.7 °F 81% 29.66 in 10.0 mi SSE 9.2 mph 18.4 mph N/A   Clear
4:15 AM 71.2 °F - 65.8 °F 83% 29.65 in 10.0 mi SE 9.2 mph - N/A   Clear
4:35 AM 70.9 °F - 65.7 °F 83% 29.65 in 10.0 mi SSE 10.4 mph - N/A   Clear
4:55 AM 70.9 °F - 65.5 °F 83% 29.65 in 10.0 mi SSE 11.5 mph - N/A   Clear
5:15 AM 70.7 °F - 65.3 °F 83% 29.65 in 10.0 mi SE 11.5 mph - N/A   Clear
5:35 AM 69.8 °F - 65.1 °F 85% 29.65 in 10.0 mi SSE 11.5 mph - N/A   Clear
5:55 AM 70.0 °F - 64.9 °F 84% 29.65 in 10.0 mi SSE 10.4 mph - N/A   Clear
6:15 AM 71.2 °F - 65.1 °F 81% 29.65 in 10.0 mi South 13.8 mph - N/A   Scattered Clouds
6:35 AM 70.9 °F - 65.1 °F 82% 29.65 in 10.0 mi South 11.5 mph 19.6 mph N/A   Scattered Clouds
6:55 AM 71.2 °F - 65.3 °F 81% 29.66 in 10.0 mi South 15.0 mph 19.6 mph N/A   Scattered Clouds
7:15 AM 71.6 °F - 65.3 °F 80% 29.66 in 10.0 mi SSE 12.7 mph 18.4 mph N/A   Mostly Cloudy
7:35 AM 71.6 °F - 65.1 °F 80% 29.64 in 10.0 mi SSE 16.1 mph 23.0 mph N/A   Scattered Clouds
7:55 AM 71.6 °F - 65.3 °F 80% 29.63 in 10.0 mi SSE 23.0 mph 29.9 mph N/A Thunderstorm Scattered Clouds
8:15 AM 72.9 °F - 63.0 °F 71% 29.64 in 10.0 mi South 28.8 mph 34.5 mph N/A Rain , Thunderstorm Light Thunderstorms and Rain
8:35 AM 72.1 °F - 63.9 °F 75% 29.65 in 3.0 mi South 25.3 mph 48.3 mph 0.07 in Rain , Thunderstorm Heavy Thunderstorms and Rain
8:55 AM 71.2 °F - 66.7 °F 86% 29.65 in 7.0 mi SSE 17.3 mph - 0.12 in Rain Light Rain
9:15 AM 72.9 °F - 67.5 °F 83% 29.64 in 10.0 mi SE 18.4 mph 21.9 mph N/A   Scattered Clouds
9:35 AM 73.6 °F - 67.1 °F 80% 29.64 in 10.0 mi SSE 19.6 mph 32.2 mph N/A   Scattered Clouds
9:55 AM 74.8 °F - 67.6 °F 78% 29.64 in 10.0 mi South 18.4 mph 27.6 mph N/A Thunderstorm Thunderstorm
10:15 AM 73.6 °F - 66.6 °F 79% 29.64 in 10.0 mi South 15.0 mph 27.6 mph N/A Thunderstorm Mostly Cloudy
10:35 AM 73.6 °F - 66.4 °F 78% 29.64 in 10.0 mi South 15.0 mph 20.7 mph N/A   Scattered Clouds
10:55 AM 76.3 °F - 67.6 °F 74% 29.64 in 10.0 mi South 13.8 mph 20.7 mph N/A   Clear
11:15 AM 76.5 °F - 66.9 °F 72% 29.65 in 10.0 mi South 13.8 mph 21.9 mph N/A   Scattered Clouds
11:35 AM 75.4 °F - 67.1 °F 75% 29.65 in 10.0 mi South 13.8 mph 19.6 mph N/A   Mostly Cloudy
11:55 AM 74.7 °F - 66.4 °F 75% 29.65 in 10.0 mi South 17.3 mph - N/A   Overcast
12:15 PM 73.9 °F - 66.9 °F 79% 29.66 in 10.0 mi SSE 13.8 mph 21.9 mph N/A Thunderstorm Thunderstorm
12:35 PM 75.0 °F - 66.4 °F 74% 29.65 in 10.0 mi SSE 17.3 mph 26.5 mph N/A   Scattered Clouds
12:55 PM 77.2 °F - 68.0 °F 73% 29.63 in 10.0 mi SSE 19.6 mph 25.3 mph N/A Thunderstorm Scattered Clouds
1:15 PM 78.6 °F - 68.0 °F 70% 29.62 in 10.0 mi SSE 17.3 mph - N/A Thunderstorm Scattered Clouds
1:35 PM 78.4 °F - 68.0 °F 70% 29.60 in 10.0 mi South 19.6 mph 25.3 mph N/A Thunderstorm Overcast
1:55 PM 80.4 °F 83.2 °F 68.4 °F 67% 29.61 in 10.0 mi SSE 19.6 mph 26.5 mph N/A Thunderstorm Mostly Cloudy
2:15 PM 81.3 °F 84.5 °F 69.1 °F 66% 29.59 in 10.0 mi SSE 20.7 mph 26.5 mph N/A Thunderstorm Scattered Clouds
2:35 PM 80.8 °F 83.8 °F 68.9 °F 67% 29.59 in 10.0 mi SSE 23.0 mph 26.5 mph N/A   Mostly Cloudy
2:55 PM 76.6 °F - 69.4 °F 78% 29.58 in 5.0 mi SE 16.1 mph 21.9 mph 0.02 in Rain , Thunderstorm Heavy Thunderstorms and Rain
3:15 PM 78.6 °F - 70.0 °F 75% 29.57 in 10.0 mi SSE 18.4 mph 24.2 mph N/A Rain , Thunderstorm Light Thunderstorms and Rain
3:35 PM 79.5 °F - 70.5 °F 74% 29.56 in 10.0 mi SE 19.6 mph 23.0 mph N/A   Mostly Cloudy
3:55 PM 80.6 °F 83.9 °F 69.8 °F 70% 29.54 in 10.0 mi SSE 16.1 mph - N/A   Mostly Cloudy
4:15 PM 80.6 °F 83.9 °F 69.8 °F 70% 29.52 in 10.0 mi SSE 17.3 mph 23.0 mph N/A Thunderstorm Mostly Cloudy
4:35 PM 79.0 °F - 68.0 °F 69% 29.52 in 10.0 mi South 20.7 mph 34.5 mph 0.01 in Thunderstorm Thunderstorm
4:55 PM 69.3 °F - 61.3 °F 76% 29.52 in 0.8 mi SSW 17.3 mph 61.0 mph 0.22 in Rain , Thunderstorm Heavy Thunderstorms and Rain
5:15 PM 72.7 °F - 67.6 °F 84% 29.52 in 10.0 mi South 9.2 mph - N/A Rain , Thunderstorm Thunderstorms and Rain
5:35 PM 66.7 °F - 60.3 °F 80% 29.52 in 7.0 mi WSW 12.7 mph 32.2 mph 0.04 in Rain , Thunderstorm Heavy Thunderstorms and Rain
5:55 PM 65.7 °F - 62.1 °F 88% 29.59 in 1.5 mi WSW 29.9 mph 41.4 mph 0.35 in Rain , Thunderstorm Heavy Thunderstorms and Rain
6:15 PM 65.1 °F - 59.9 °F 83% 29.54 in 10.0 mi SW 9.2 mph - 0.02 in Rain , Thunderstorm Light Thunderstorms and Rain
6:35 PM 68.0 °F - 61.9 °F 81% 29.53 in 7.0 mi SSW 13.8 mph 19.6 mph 0.05 in Rain , Thunderstorm Rain
6:55 PM 68.5 °F - 61.2 °F 77% 29.47 in 10.0 mi SE 15.0 mph - 0.08 in Rain , Thunderstorm Light Thunderstorms and Rain
7:15 PM 68.4 °F - 60.4 °F 76% 29.41 in 10.0 mi ESE 20.7 mph - N/A   Light Drizzle
7:35 PM 68.2 °F - 60.1 °F 75% 29.54 in 10.0 mi South 21.9 mph 35.7 mph N/A Rain Light Rain
7:55 PM 65.7 °F - 59.2 °F 80% 29.50 in 10.0 mi SSE 16.1 mph 26.5 mph N/A Thunderstorm Thunderstorm
8:15 PM 66.7 °F - 58.6 °F 75% 29.50 in 10.0 mi SE 19.6 mph - N/A Rain , Thunderstorm Light Thunderstorms and Rain
8:35 PM 65.8 °F - 59.2 °F 79% 29.55 in 10.0 mi SSE 12.7 mph 21.9 mph N/A Rain Light Rain
8:55 PM 64.9 °F - 59.5 °F 83% 29.57 in 10.0 mi Calm Calm - N/A   Scattered Clouds
9:15 PM 65.3 °F - 59.9 °F 83% 29.56 in 10.0 mi SE 5.8 mph - N/A   Mostly Cloudy
9:35 PM 64.8 °F - 60.1 °F 85% 29.54 in 10.0 mi ESE 5.8 mph - N/A   Overcast
9:55 PM 64.9 °F - 59.4 °F 82% 29.54 in 10.0 mi East 5.8 mph - N/A   Overcast
10:15 PM 65.3 °F - 59.5 °F 82% 29.55 in 10.0 mi SE 6.9 mph - N/A   Overcast
10:35 PM 64.0 °F - 58.3 °F 82% 29.64 in 5.0 mi WSW 19.6 mph 33.4 mph 0.03 in Rain , Thunderstorm Heavy Thunderstorms and Rain
10:55 PM 61.7 °F - 58.3 °F 89% 29.64 in 5.0 mi WSW 19.6 mph 28.8 mph 0.08 in Rain Light Rain
11:15 PM 63.1 °F - 58.5 °F 85% 29.64 in 10.0 mi WNW 26.5 mph 38.0 mph N/A Rain Rain
11:35 PM 62.8 °F - 57.6 °F 83% 29.60 in 10.0 mi NNW 16.1 mph 26.5 mph N/A   Mostly Cloudy
11:55 PM 62.2 °F - 56.8 °F 82% 29.58 in 10.0 mi NNW 13.8 mph 19.6 mph N/A   Scattered Clouds